Weather History for Salt Lake City, UT

Change the Weather History Date:

Tuesday, February 14, 2012

  Actual Average Record
Temperature  
Mean Temperature 40 °F 34 °F  
Max Temperature 46 °F 43 °F 63 °F (1921)
Min Temperature 33 °F 25 °F -13 °F (1933)
Degree Days  
Heating Degree Days 25 31  
Month to date heating degree days 376 461  
Since 1 July heating degree days 3562 3855  
Cooling Degree Days 0 0  
Month to date cooling degree days 0 0  
Year to date cooling degree days 0 0  
Moisture  
Dew Point 29 °F    
Average Humidity 69    
Maximum Humidity 89    
Minimum Humidity 49    
Precipitation  
Precipitation T in 0.05 in 0.54 in (1987)
Month to date precipitation 0.47 0.59  
Year to date precipitation 2.26 1.84  
Snow  
Snow 0.00 in 0.40 in 7.20 in (1944)
Month to date snowfall 0.8 5.6  
Since 1 July snowfall 13.3 40.3  
Snow Depth 0.00 in    
Sea Level Pressure  
Sea Level Pressure 29.79 in    
Wind  
Wind Speed 6 mph (NW)    
Max Wind Speed 14 mph    
Max Gust Speed 18 mph    
Visibility 10 miles    
Events Rain , Snow    
T = Trace of Precipitation, MM = Missing Value Source: NWS Daily Summary

Daily Weather History Graph

Daily Weather History Graph

Search for Another Location

Airport:

Trip Planner

Search our weather history database for the weather conditions in past years. The results will help you decide how hot, cold, wet, or windy it might be!

Date:

Astronomy

Feb. 14, 2012 Rise Set
Actual Time 7:23 AM MST 6:00 PM MST
Civil Twilight 6:55 AM MST 6:29 PM MST
Nautical Twilight 6:23 AM MST 7:01 PM MST
Astronomical Twilight 5:51 AM MST 7:33 PM MST
Moon 1:13 AM MST (2/14) 11:08 AM MST (2/14)
Length of Visible Light 11h 33m
Length of Day
10h 37m
Waning Gibbous, 49% of the Moon is Illuminated
Feb 14
Waning Gibbous
Feb 21
New
Feb 29
First Quarter
Mar 8
Full
Mar 14
Last Quarter

Hourly Weather History & Observations

Time (MST) Temp. Windchill Dew Point Humidity Pressure Visibility Wind Dir Wind Speed Gust Speed Precip Events Conditions
12:53 AM 37.0 °F 33.3 °F 30.9 °F 79% 29.72 in 10.0 mi ESE 4.6 mph - N/A   Mostly Cloudy
1:53 AM 35.6 °F 32.8 °F 32.0 °F 87% 29.74 in 10.0 mi West 3.5 mph - N/A   Mostly Cloudy
2:53 AM 37.0 °F - 32.0 °F 82% 29.73 in 10.0 mi Calm Calm - N/A   Mostly Cloudy
3:53 AM 37.0 °F - 33.1 °F 86% 29.73 in 9.0 mi Calm Calm - 0.00 in Rain Light Rain
4:53 AM 36.0 °F 30.3 °F 32.0 °F 86% 29.74 in 10.0 mi North 6.9 mph - 0.00 in Rain Light Rain
5:53 AM 36.0 °F - 32.0 °F 86% 29.75 in 9.0 mi Calm Calm - 0.00 in Rain , Snow Light Rain
6:53 AM 36.0 °F 33.3 °F 30.9 °F 82% 29.76 in 10.0 mi North 3.5 mph - 0.00 in   Mostly Cloudy
7:53 AM 35.1 °F - 28.9 °F 78% 29.78 in 10.0 mi Calm Calm - N/A   Mostly Cloudy
8:53 AM 34.0 °F 31.0 °F 28.9 °F 82% 29.81 in 10.0 mi North 3.5 mph - N/A   Mostly Cloudy
9:53 AM 37.9 °F 34.4 °F 32.0 °F 79% 29.80 in 10.0 mi NNW 4.6 mph - N/A   Scattered Clouds
10:53 AM 39.9 °F 33.9 °F 30.9 °F 70% 29.81 in 10.0 mi NW 9.2 mph - N/A   Mostly Cloudy
11:53 AM 44.1 °F 40.1 °F 28.9 °F 55% 29.81 in 10.0 mi Variable 6.9 mph - N/A   Scattered Clouds
12:53 PM 45.0 °F 40.6 °F 27.0 °F 49% 29.80 in 10.0 mi NNW 8.1 mph - N/A   Mostly Cloudy
1:53 PM 45.0 °F 39.3 °F 28.0 °F 52% 29.78 in 10.0 mi WNW 11.5 mph - N/A   Mostly Cloudy
2:53 PM 45.0 °F 40.1 °F 26.1 °F 48% 29.78 in 10.0 mi NW 9.2 mph - N/A   Scattered Clouds
3:53 PM 45.0 °F 40.6 °F 26.1 °F 48% 29.80 in 10.0 mi NW 8.1 mph - N/A   Mostly Cloudy
4:53 PM 44.1 °F 40.8 °F 26.1 °F 49% 29.81 in 10.0 mi North 5.8 mph - N/A   Scattered Clouds
5:53 PM 37.4 °F 32.8 °F 26.6 °F 65% 29.82 in 10.0 mi West 5.8 mph - N/A   Scattered Clouds
6:53 PM 37.9 °F 35.5 °F 25.0 °F 60% 29.83 in 10.0 mi West 3.5 mph - N/A   Partly Cloudy
7:53 PM 35.1 °F 31.0 °F 26.1 °F 70% 29.84 in 10.0 mi SW 4.6 mph - N/A   Scattered Clouds
8:53 PM 35.1 °F 31.0 °F 25.0 °F 67% 29.84 in 10.0 mi South 4.6 mph - N/A   Mostly Cloudy
9:53 PM 34.0 °F 26.6 °F 25.0 °F 70% 29.82 in 10.0 mi SE 9.2 mph - N/A   Mostly Cloudy
10:53 PM 34.0 °F 27.2 °F 26.1 °F 73% 29.85 in 10.0 mi SE 8.1 mph - N/A   Mostly Cloudy
11:53 PM 36.0 °F 28.5 °F 27.0 °F 70% 29.83 in 10.0 mi ESE 10.4 mph - N/A   Mostly Cloudy